Haines, AK

9:48 PM AKDT on August 24, 2016 (GMT -0800)
Letnikof Cove | | Change Station

Elev 230 ft 59.17 °N, 135.39 °W | Updated 29 seconds ago

Overcast
Overcast
58.8 °F
Feels Like 58.8 °F
N
0.0
Wind Variable Wind from WSW
Gusts 0.0 mph

Today
High -- | Low -- °F
--% Chance of Precip.
Yesterday
High -- | Low -- °F
Precip. -- in
Pressure 30.52 in
Visibility 10.0 miles
Clouds Mostly Cloudy 1500 ft
Overcast 2000 ft
Dew Point 59 °F
Humidity 99%
Rainfall 0.22 in
Snow Depth Not available.
5:42 AM 8:24 PM
Waning Gibbous, 49% visible
SPECI PAHN 250525Z AUTO 10003KT 10SM BKN015 OVC020 14/13 A3052 RMK AO2 T01440133 TSNO
Pressure 30.52 in
Visibility 10.0 miles
Clouds Mostly Cloudy 1500 ft
Overcast 2000 ft
Dew Point 59 °F
Humidity 99%
Rainfall 0.22 in
Snow Depth Not available.
5:42 AM 8:24 PM
Waning Gibbous, 49% visible
SPECI PAHN 250525Z AUTO 10003KT 10SM BKN015 OVC020 14/13 A3052 RMK AO2 T01440133 TSNO

10-Day Weather Forecast

Almanac

Astronomy

Aug. 24, 2016 Rise Set
Actual Time
Civil Twilight
Nautical Twilight
Astronomical Twilight
Moon
Length of Visible Light
Length of Day
Tomorrow will be .
, % of the Moon is Illuminated

Today's Extremes

State Highs State Lows

Community

WunderPhotos

Upload Photos

1,934,799 photos uploaded!

WunderBlog® & News

Nearby

Air Quality

  Air Quality AQ Index Pollutant
Not available.

Snow Depth

Station Depth Elevation

Earthquake Activity

City Distance Mag. Time & Date
Minimum magnitude displayed is 2.5.

Coastal Water Temperatures

Place Temperature

Stations

Nearby Weather Stations

Station Location Temp. Windchill Dew Point Humidity Wind Precip. Elev Updated Type
                   

Watches & Warnings

There are currently no watches in effect.